User: anonymous   Login
Location: Red Shale Campground
(45.5700°N, 106.1600°W)
Time: 03:16:20
(UTC-07:00)
Language:

FENGYUN 3A - Orbit

View from above orbital plane
View from above orbital plane
View from above satellite
View from above satellite

Ground track
Ground track

The orbit data is extracted from the following two-line orbital elements,

1 32958U 08026A   17324.81835767  .00000046  00000-0  41168-4 0  9999
2 32958  98.3959 345.5761 0009412 177.4927 182.6297 14.19682464491550
Epoch (UTC): 20 November 2017 19:38:26
Eccentricity: 0.0009412
inclination: 98.3959°
perigee height: 819 km
apogee height: 833 km
right ascension of ascending node: 345.5761°
argument of perigee: 177.4927°
revolutions per day: 14.19682464
mean anomaly at epoch: 182.6297°
orbit number at epoch: 49155

The dashed part of the orbit path shows where the satellite is in the earth's shadow,  

DLR